Regional Weather Roundup
Issued by NWS Glasgow, MT

Home | Current Version | Previous Version | Text Only | Print | Product List | Glossary On
Versions: 1 2 3 4 5 6 7 8 9 10 11 12 13 14 15 16 17 18 19 20 21 22 23 24 25 26
000
ASUS45 KGGW 232115
RWRGGW
HOURLY REGIONAL WEATHER ROUNDUP FOR NORTHEAST MONTANA
NATIONAL WEATHER SERVICE GLASGOW MONTANA
300 PM MDT MON APR 23 2018

NOTE: "FAIR" INDICATES FEW OR NO CLOUDS BELOW 12,000 FEET WITH NO
SIGNIFICANT WEATHER AND/OR OBSTRUCTIONS TO VISISBILITY.

NORTHEAST MONTANA


CITY           SKY/WX    TMP DP  RH WIND       PRES   REMARKS
GLASGOW        CLOUDY    51  22  31 N16       30.35S
PLENTYWOOD       N/A     49  19  30 N13G22      N/A
WOLF POINT     CLOUDY    52  29  41 NE12G21   30.34R
JORDAN           N/A     43  38  82 N10       30.35S
WINNETT          N/A     42  36  79 NE9G18      N/A
SIDNEY         LGT RAIN  43  37  79 N14       30.32R
GLENDIVE       RAIN      38  36  92 N15       30.32R
MALTA            N/A     52  23  32 NE10        N/A

FORT PECK REPORTS


CITY           SKY/WX    TMP DP  RH WIND       PRES   REMARKS
FORT PECK        N/A     48  29  47 N15         N/A
THE PINES        N/A     48  30  49 N8          N/A

SOUTHEAST MONTANA


CITY           SKY/WX    TMP DP  RH WIND       PRES   REMARKS
BILLINGS       FLURRIES  34  34 100 NW7       30.40R
MILES CITY     RAIN      37  37 100 N15       30.31R FOG
BAKER          CLOUDY    46  32  58 N30G37    30.21S
LIVINGSTON     LGT SNOW  36  33  89 E16       30.38R FOG

CENTRAL MONTANA


CITY           SKY/WX    TMP DP  RH WIND       PRES   REMARKS
HAVRE          PTSUNNY   56  22  26 N13G18    30.39S
LEWISTOWN      CLOUDY    40  36  86 W8        30.39R
GREAT FALLS    CLOUDY    49  25  39 NE13G20   30.41R
CUT BANK       SUNNY     51  18  27 MISG      30.41S
HELENA         CLOUDY    45  30  55 E7        30.41S
BUTTE          CLOUDY    38  28  67 SE7       30.37R
BOZEMAN        LGT RAIN  38  34  85 S10       30.39R FOG

WESTERN MONTANA


CITY           SKY/WX    TMP DP  RH WIND       PRES   REMARKS
MISSOULA       CLOUDY    55  25  31 SE20      30.37R
KALISPELL      NOT AVBL

NORTH DAKOTA


CITY           SKY/WX    TMP DP  RH WIND       PRES   REMARKS
WILLISTON      CLOUDY    50  32  50 N20       30.30S
DICKINSON      CLOUDY    52  31  44 NE20      30.19S
MINOT          CLOUDY    54  34  46 NW17      30.23F
BISMARCK       PTSUNNY   63  31  30 NE16G25   30.16F

SOUTHERN SASKATCHEWAN


CITY           SKY/WX    TMP DP  RH WIND       PRES   REMARKS
REGINA         PTSUNNY   54  19  26 N23G35    30.32S
MOOSE JAW      CLOUDY    54  21  28 NW16G24   30.34F
ESTEVAN        PTSUNNY   52  23  32 N17       30.28S
SWIFT CURRENT  PTSUNNY   52  19  28 NW15G21   30.35F





USA.gov is the U.S. government's official web portal to all federal, state and local government web resources and services.